STARLINK-5737, 55570

Orbit data source: Space-Track

STARLINK-5737, 55570 is a payload satellite owned by SpaceX/Seattle (US) in LEO that was launched on Sun, 12 Feb 2023 UTC via an FALCON 9 launch vehicle from the Air Force Eastern Test Range (AFETR). Payload-class satellites include a variety of spacecraft equipped with specific instruments for various scientific and technological missions. These include communications satellites like Starlink; space stations such as the ISS; scientific satellites like the Hubble; Earth observation satellites from companies like Planet Labs, Umbra, and HawkEye 360; GPS; miniature CubeSats for education and research; and military/defense satellites.

Loading next visibility...
Identifier
55570, 2023-020B
Orbit
LEO
Country
Flag of USUS
Related business
Manufacturer
SpaceX/Seattle
Mission
Operational Commercial Communications
Bus & Motor
STARLINK, Unknown motor
Mass
305 kg wet, ~290 kg dry
Launch date (UTC)
2023-02-12 (4 years ago)
Launch vehicle
FALCON 9
Launch site
Air Force Eastern Test Range (AFETR)
Object type
Payload
Rocket body
Debris
Shape & HBR
Box + 1 Pan, 10.1 m
Radar Cross Section
13.562 m², Large (>1 m²)

Expand to show TLE details & history
Last TLE update: 7 hours ago

TLE from 7 hours ago
0 STARLINK-5737
1 55570U 23020B   26264.27209836 -.00000186  00000-0  27606-5 0  9998
2 55570  43.0059 340.7412 0001870 285.8718  74.1927 15.27574403198827
Epoch: 2026-09-21T06:31Z
TLE epoch observation values (Epoch: 2026-09-21T06:31:49.298Z)
Latitude
-0.00005°
Longitude
-117.36857°
Altitude
482.493 km
Speed
7.626 km/s
True Right ascension
22h 42m 57s
True Declination
0° 00' 00"
Sunlit
Object was in full shadow at epoch
Visualization orbit readout
Latitude
Unknown
Longitude
Unknown
Altitude
Unknown
Speed
Unknown
Apparent Right ascension
Unknown
Apparent Declination
Unknown
Sunlit
N/A
Visualization observer readout
Local Sidereal Time
06:57:22
Azimuth
Unknown
Elevation
Unknown
Doppler factor
Unknown
Orbital elements
Apogee altitude
486.293 km
Perigee altitude
483.727 km
Semi-major axis
6,863.147 km
Eccentricity
0.00019
Inclination
43.0059°
RAAN
340.7412°
Arg. of periapsis
285.8718°
True anomaly
74.21332°
Mean anomaly
74.1927°
Eccentric anomaly
74.20301°
Mean motion
3.81732 °/min
Orbital period
94.31 mins
BSTAR
0.0000027606
Loading maneuver chart data...
Computing Atmospheric mass density...
Loading historical data...
Loading historical data...
Loading historical data...
Loading historical data...
Loading historical data...
Loading historical data...
Loading historical data...

Documentation

Showing up to 5 results
|